Weather History for KCNK - September, 2012

Change the Weather History Date:

Thursday, September 27, 2012

  Actual Average Record
Temperature  
Mean Temperature 63 °F 63 °F  
Max Temperature 78 °F 75 °F 98 °F (1892)
Min Temperature 47 °F 51 °F 34 °F (1889)
Degree Days  
Heating Degree Days 2 5  
Month to date heating degree days 68 55  
Since 1 July heating degree days 68 58  
Cooling Degree Days 0 3  
Month to date cooling degree days 118 153  
Year to date cooling degree days 1640 1319  
Growing Degree Days 12 (Base 50)    
Moisture  
Dew Point 45 °F    
Average Humidity 59    
Maximum Humidity 100    
Minimum Humidity 17    
Precipitation  
Precipitation 0.00 in 0.09 in 1.45 in (1973)
Month to date precipitation 1.08 2.64  
Year to date precipitation 19.33 23.74  
Snow  
Snow 0.00 in 0.00 in 0.00 in ()
Month to date snowfall 0.0 0.0  
Year to date snowfall 5.8 13.7  
Since 1 July snowfall 0.0 0.0  
Snow Depth 0.00 in    
Sea Level Pressure  
Sea Level Pressure 30.14 in    
Wind  
Wind Speed 4 mph (SE)    
Max Wind Speed 13 mph    
Max Gust Speed 16 mph    
Visibility 7 miles    
Events Fog    
T = Trace of Precipitation, MM = Missing Value Source: NWS Daily Summary

Daily Weather History Graph

Daily Weather History Graph

Search for Another Location

Airport or City:

Trip Planner

Search our weather history database for the weather conditions in past years. The results will help you decide how hot, cold, wet, or windy it might be!

Date:

Astronomy

Sep. 27, 2012 Rise Set
Actual Time 7:23 AM CDT 7:18 PM CDT
Civil Twilight 6:56 AM CDT 7:45 PM CDT
Nautical Twilight 6:25 AM CDT 8:16 PM CDT
Astronomical Twilight 5:53 AM CDT 8:48 PM CDT
Moon 5:50 PM CDT (9/27) 4:54 AM CDT (9/27)
Length of Visible Light 12h 48m
Length of Day
11h 55m
Waxing Gibbous, 94% of the Moon is Illuminated
Sep 27
Waxing Gibbous
Sep 29
Full
Oct 8
Last Quarter
Oct 15
New
Oct 21
First Quarter

Hourly Weather History & Observations

Time (CDT) Temp. Dew Point Humidity Pressure Visibility Wind Dir Wind Speed Gust Speed Precip Events Conditions
12:51 AM 50.0 °F 50.0 °F 100% 30.14 in 2.0 mi Calm Calm - N/A   Clear
12:55 AM 51.1 °F 51.1 °F 100% 30.12 in 1.8 mi Calm Calm - N/A   Clear
12:58 AM 51.8 °F 51.8 °F 100% 30.13 in 1.2 mi Calm Calm - N/A   Clear
1:07 AM 50.0 °F 50.0 °F 100% 30.13 in 0.5 mi SE 3.5 mph - N/A Fog Fog
1:15 AM 50.0 °F 48.2 °F 94% 30.13 in 0.2 mi Calm Calm - N/A Fog Fog
1:55 AM 51.8 °F 51.8 °F 100% 30.13 in 1.0 mi Calm Calm - N/A   Clear
1:57 AM 51.8 °F 51.8 °F 100% 30.13 in 2.0 mi Calm Calm - N/A   Clear
2:04 AM 51.8 °F 51.8 °F 100% 30.13 in 3.0 mi Calm Calm - N/A   Clear
2:07 AM 51.8 °F 50.0 °F 94% 30.13 in 1.8 mi Calm Calm - N/A   Clear
2:11 AM 51.8 °F 50.0 °F 94% 30.13 in 1.2 mi Calm Calm - N/A   Clear
2:20 AM 50.0 °F 48.2 °F 94% 30.14 in 0.5 mi Calm Calm - N/A Fog Fog
2:33 AM 50.0 °F 50.0 °F 100% 30.14 in 0.2 mi Calm Calm - N/A Fog Fog
2:42 AM 51.8 °F 51.8 °F 100% 30.14 in 1.8 mi Calm Calm - N/A   Partly Cloudy
2:55 AM 51.1 °F 50.0 °F 96% 30.14 in 10.0 mi Calm Calm - N/A   Partly Cloudy
3:55 AM 48.9 °F 48.0 °F 97% 30.16 in 10.0 mi WNW 4.6 mph - N/A   Clear
4:55 AM 48.0 °F 46.0 °F 93% 30.16 in 9.0 mi Calm Calm - N/A   Clear
5:55 AM 48.0 °F 46.0 °F 93% 30.15 in 10.0 mi WNW 3.5 mph - N/A   Clear
6:55 AM 48.0 °F 46.0 °F 93% 30.15 in 10.0 mi NW 3.5 mph - N/A   Clear
7:55 AM 46.9 °F 44.1 °F 90% 30.15 in 10.0 mi Calm Calm - N/A   Clear
8:55 AM 53.1 °F 48.0 °F 83% 30.17 in 10.0 mi Calm Calm - N/A   Clear
9:55 AM 57.9 °F 46.9 °F 67% 30.18 in 10.0 mi East 6.9 mph - N/A   Clear
10:55 AM 62.1 °F 46.9 °F 58% 30.19 in 10.0 mi East 4.6 mph - N/A   Clear
11:55 AM 69.1 °F 45.0 °F 42% 30.18 in 10.0 mi Calm Calm - N/A   Clear
12:55 PM 73.0 °F 37.9 °F 28% 30.16 in 10.0 mi Variable 3.5 mph - N/A   Clear
1:55 PM 75.9 °F 35.1 °F 23% 30.13 in 10.0 mi ENE 9.2 mph - N/A   Clear
2:55 PM 75.9 °F 32.0 °F 20% 30.12 in 10.0 mi Variable 5.8 mph - N/A   Clear
3:55 PM 78.1 °F 30.9 °F 18% 30.11 in 10.0 mi Variable 5.8 mph - N/A   Clear
4:55 PM 77.0 °F 30.9 °F 19% 30.09 in 10.0 mi SSE 8.1 mph - N/A   Clear
5:55 PM 75.0 °F 35.1 °F 23% 30.09 in 10.0 mi SSE 8.1 mph - N/A   Clear
6:55 PM 69.1 °F 37.9 °F 32% 30.10 in 9.0 mi SSE 4.6 mph - N/A   Clear
7:55 PM 62.1 °F 39.0 °F 43% 30.11 in 10.0 mi SSE 5.8 mph - N/A   Clear
8:55 PM 62.1 °F 39.9 °F 44% 30.12 in 10.0 mi South 5.8 mph - N/A   Clear
9:55 PM 60.1 °F 39.9 °F 47% 30.12 in 10.0 mi South 4.6 mph - N/A   Clear
10:55 PM 57.9 °F 39.9 °F 51% 30.13 in 10.0 mi Calm Calm - N/A   Clear